Weather History for KTOP - March, 2013

Change the Weather History Date:

Sunday, March 10, 2013

  Actual Average Record
Temperature  
Mean Temperature 40 °F 43 °F  
Max Temperature 53 °F 54 °F 84 °F (1967)
Min Temperature 27 °F 31 °F 0 °F (1948)
Degree Days  
Heating Degree Days 25 22  
Month to date heating degree days 262 240  
Since 1 July heating degree days 3819 4207  
Cooling Degree Days 0 0  
Month to date cooling degree days 0 0  
Year to date cooling degree days 0 0  
Moisture  
Dew Point 34 °F    
Average Humidity 85    
Maximum Humidity 100    
Minimum Humidity 69    
Precipitation  
Precipitation T in 0.07 in 0.96 in (1922)
Month to date precipitation 1.28 0.66  
Year to date precipitation 3.72 2.84  
Snow  
Snow 0.00 in 0.00 in 2.70 in (1943)
Month to date snowfall T 0.7  
Year to date snowfall 16.0 10.1  
Since 1 July snowfall 21.4 16.6  
Snow Depth 0.00 in    
Sea Level Pressure  
Sea Level Pressure 29.76 in    
Wind  
Wind Speed 15 mph (NW)    
Max Wind Speed 26 mph    
Max Gust Speed 34 mph    
Visibility 4 miles    
Events Fog , Rain , Snow    
T = Trace of Precipitation, MM = Missing Value Source: NWS Daily Summary

Daily Weather History Graph

Daily Weather History Graph

Search for Another Location

Airport or City:

Trip Planner

Search our weather history database for the weather conditions in past years. The results will help you decide how hot, cold, wet, or windy it might be!

Date:

Astronomy

Mar. 10, 2013 Rise Set
Actual Time 7:41 AM CDT 7:24 PM CDT
Civil Twilight 7:14 AM CDT 7:51 PM CDT
Nautical Twilight 6:43 AM CDT 8:22 PM CDT
Astronomical Twilight 6:12 AM CDT 8:53 PM CDT
Moon 6:41 AM CDT (3/10) 6:33 PM CDT (3/10)
Length of Visible Light 12h 36m
Length of Day
11h 43m
Waning Crescent, 2% of the Moon is Illuminated
Mar 10
Waning Crescent
Mar 11
New
Mar 19
First Quarter
Mar 27
Full
Apr 2
Last Quarter

Hourly Weather History & Observations

Time (CDT) Temp. Windchill Dew Point Humidity Pressure Visibility Wind Dir Wind Speed Gust Speed Precip Events Conditions
12:03 AM 48.9 °F - 46.9 °F 93% 29.60 in 2.0 mi Calm Calm - N/A   Clear
12:23 AM 50.0 °F - 48.9 °F 96% 29.60 in 6.0 mi ESE 4.6 mph - N/A   Clear
12:34 AM 48.9 °F - 48.0 °F 97% 29.59 in 1.8 mi Calm Calm - N/A   Clear
12:38 AM 48.9 °F - 48.0 °F 97% 29.58 in 0.5 mi Calm Calm - N/A Fog Fog
12:53 AM 48.0 °F - 46.0 °F 93% 29.59 in 0.8 mi ESE 5.8 mph - N/A   Clear
1:03 AM 48.9 °F - 48.0 °F 97% 29.59 in 0.2 mi Calm Calm - N/A Fog Fog
1:18 AM 51.1 °F - 48.0 °F 89% 29.60 in 0.8 mi West 4.6 mph - N/A   Mist
1:22 AM 51.1 °F - 48.9 °F 92% 29.60 in 3.0 mi WNW 8.1 mph - N/A   Mostly Cloudy
1:53 AM 53.1 °F - 50.0 °F 89% 29.60 in 10.0 mi WNW 3.5 mph - N/A   Overcast
3:53 AM 52.0 °F - 50.0 °F 93% 29.60 in 10.0 mi SSE 4.6 mph - N/A   Overcast
4:53 AM 52.0 °F - 50.0 °F 93% 29.59 in 6.0 mi North - - N/A   Overcast
5:08 AM 46.9 °F - 44.1 °F 90% 29.63 in 4.0 mi NNW 13.8 mph - 0.00 in Rain Light Rain
5:25 AM 45.0 °F 38.2 °F 43.0 °F 93% 29.65 in 2.5 mi NNW 15.0 mph - 0.00 in   Overcast
5:53 AM 43.0 °F 36.4 °F 41.0 °F 93% 29.65 in 2.5 mi NW 12.7 mph 20.7 mph 0.00 in   Overcast
6:15 AM 41.0 °F 33.1 °F 39.0 °F 93% 29.65 in 3.0 mi North 15.0 mph 23.0 mph N/A   Overcast
6:53 AM 39.2 °F 31.2 °F 37.4 °F 93% 29.66 in 5.0 mi NNW 13.8 mph 20.7 mph N/A   Overcast
7:10 AM 39.9 °F 31.4 °F 37.0 °F 89% 29.69 in 7.0 mi NNW 16.1 mph - N/A   Overcast
7:53 AM 39.0 °F 31.4 °F 36.0 °F 89% 29.70 in 6.0 mi North 12.7 mph - N/A   Overcast
8:53 AM 37.9 °F 30.9 °F 36.0 °F 93% 29.71 in 3.0 mi North 10.4 mph - 0.00 in Rain Light Rain
9:05 AM 37.9 °F 29.6 °F 35.1 °F 89% 29.73 in 2.0 mi North 13.8 mph 19.6 mph 0.00 in   Overcast
9:53 AM 37.9 °F 28.9 °F 35.1 °F 89% 29.74 in 3.0 mi NNW 16.1 mph 23.0 mph 0.00 in Rain Light Rain
10:07 AM 37.0 °F 28.1 °F 35.1 °F 93% 29.72 in 2.0 mi NNW 15.0 mph - 0.00 in   Overcast
10:16 AM 37.0 °F 28.5 °F 34.0 °F 89% 29.72 in 1.5 mi NNW 13.8 mph - 0.00 in   Overcast
10:53 AM 37.0 °F 28.9 °F 34.0 °F 89% 29.75 in 2.0 mi NNW 12.7 mph - 0.00 in Rain Light Rain
11:39 AM 36.0 °F 27.5 °F 33.1 °F 89% 29.76 in 2.0 mi NNW 12.7 mph 23.0 mph 0.00 in   Overcast
11:53 AM 36.0 °F 26.3 °F 33.1 °F 89% 29.78 in 2.0 mi NNW 16.1 mph 24.2 mph 0.00 in Rain Light Rain
12:29 PM 36.0 °F 27.1 °F 33.1 °F 89% 29.77 in 3.0 mi NNW 13.8 mph - 0.00 in   Overcast
12:38 PM 35.1 °F 23.8 °F 32.0 °F 89% 29.78 in 2.0 mi NNW 20.7 mph 27.6 mph 0.00 in   Overcast
12:53 PM 35.1 °F 25.2 °F 32.0 °F 89% 29.78 in 2.5 mi NNW 16.1 mph 26.5 mph 0.00 in   Overcast
1:37 PM 35.1 °F 24.8 °F 32.0 °F 89% 29.77 in 3.0 mi NW 17.3 mph - 0.00 in   Overcast
1:44 PM 35.1 °F 23.8 °F 32.0 °F 89% 29.77 in 2.0 mi NW 20.7 mph 28.8 mph 0.00 in   Overcast
1:53 PM 35.1 °F 23.8 °F 32.0 °F 89% 29.78 in 2.5 mi NW 20.7 mph 32.2 mph 0.00 in Rain Light Rain
2:01 PM 35.1 °F 24.8 °F 30.9 °F 85% 29.78 in 4.0 mi NNW 17.3 mph 29.9 mph 0.00 in Rain Light Rain
2:09 PM 35.1 °F 25.9 °F 30.9 °F 85% 29.77 in 7.0 mi NW 13.8 mph - 0.00 in   Overcast
2:30 PM 34.0 °F 22.4 °F 30.0 °F 85% 29.78 in 2.5 mi NW 20.7 mph 27.6 mph 0.00 in   Overcast
2:48 PM 33.8 °F 22.2 °F 30.2 °F 87% 29.78 in 4.0 mi NNW 20.7 mph 31.1 mph 0.00 in Rain Light Rain
2:53 PM 33.1 °F 20.3 °F 30.0 °F 89% 29.79 in 4.0 mi NW 24.2 mph 34.5 mph 0.00 in   Overcast
3:25 PM 33.1 °F 21.2 °F 28.9 °F 85% 29.80 in 5.0 mi NNW 20.7 mph 33.4 mph N/A   Overcast
3:37 PM 32.0 °F 19.8 °F 28.9 °F 88% 29.81 in 3.0 mi NW 20.7 mph 25.3 mph N/A   Overcast
3:45 PM 32.0 °F 21.2 °F 28.0 °F 85% 29.81 in 2.5 mi NW 16.1 mph 25.3 mph N/A   Overcast
3:53 PM 32.0 °F 20.5 °F 28.0 °F 85% 29.83 in 2.5 mi NW 18.4 mph 27.6 mph N/A   Overcast
4:02 PM 32.0 °F 20.1 °F 28.0 °F 85% 29.83 in 3.0 mi NW 19.6 mph 29.9 mph N/A   Overcast
4:40 PM 32.0 °F 20.5 °F 27.0 °F 82% 29.84 in 2.5 mi NW 18.4 mph 28.8 mph 0.00 in Snow Light Snow
4:53 PM 32.0 °F 20.8 °F 27.0 °F 82% 29.86 in 2.5 mi NW 17.3 mph 27.6 mph 0.00 in Snow Light Snow
5:03 PM 32.0 °F 20.1 °F 27.0 °F 82% 29.86 in 4.0 mi NW 19.6 mph 28.8 mph 0.00 in   Overcast
5:53 PM 32.0 °F 21.6 °F 27.0 °F 82% 29.89 in 10.0 mi NW 15.0 mph 33.4 mph 0.00 in   Overcast
6:53 PM 30.9 °F 19.1 °F 26.1 °F 82% 29.90 in 10.0 mi WNW 18.4 mph 24.2 mph N/A   Overcast
7:53 PM 30.0 °F 18.3 °F 23.0 °F 75% 29.94 in 10.0 mi NW 17.3 mph 25.3 mph N/A   Overcast
8:53 PM 28.0 °F 15.7 °F 21.9 °F 78% 29.96 in 10.0 mi WNW 17.3 mph 27.6 mph N/A   Overcast
9:53 PM 28.0 °F 15.3 °F 19.9 °F 72% 29.97 in 10.0 mi NW 18.4 mph 32.2 mph N/A   Overcast
10:53 PM 27.0 °F 15.6 °F 19.9 °F 75% 29.97 in 10.0 mi NW 13.8 mph 27.6 mph N/A   Overcast
11:53 PM 27.0 °F 15.2 °F 19.9 °F 75% 29.98 in 10.0 mi NW 15.0 mph - N/A   Overcast
12:53 AM 27.0 °F 15.2 °F 19.9 °F 75% 29.98 in 10.0 mi WNW 15.0 mph - N/A   Overcast